Location: Pcim
(49.7500°N, 19.9670°E)
Time: 23:57:56
(UTC+01:00)

Tiangong - Visible Passes

Search period start: 29 November 2023 00:00
Search period end: 09 December 2023 00:00
Orbit: 374 x 384 km, 41.5° (Epoch: 29 November)

Date Brightness Start Highest point End Pass type
(mag) Time Alt. Az. Time Alt. Az. Time Alt. Az.
29 Nov 0.4 17:02:14 10° SW 17:04:24 17° S 17:06:34 10° SE visible
30 Nov 0.8 17:37:53 10° SW 17:39:06 12° SSW 17:40:19 10° S visible
01 Dec 0.7 16:35:52 10° SW 16:37:46 15° SSW 16:39:39 10° SSE visible
